| time (UTC) | temp F | wind direction | speed MPH | gust MPH | rain 1hr in | rain 24hr in | rain mn in | humidity % | barometer mb |
| 20260508004003 | 70 | 265 | 1.0 | 7.0 | 0.00 | 0.00 | 0.00 | 38 | 1014.5 |
| 20260508003503 | 70 | 275 | 2.0 | 5.0 | 0.00 | 0.00 | 0.00 | 40 | 1014.5 |
| 20260508003003 | 70 | 279 | 2.0 | 5.0 | 0.00 | 0.00 | 0.00 | 39 | 1014.6 |
| 20260508002503 | 70 | 262 | 2.0 | 5.0 | 0.00 | 0.00 | 0.00 | 39 | 1014.6 |
| 20260508002003 | 70 | 275 | 2.0 | 5.0 | 0.00 | 0.00 | 0.00 | 38 | 1014.6 |
| 20260508001503 | 70 | 310 | 2.0 | 6.0 | 0.00 | 0.00 | 0.00 | 39 | 1014.6 |
| 20260508001217 | 70 | 291 | 2.0 | 6.0 | 0.00 | 0.00 | 0.00 | 40 | 1014.6 |
| 20260508000503 | 70 | 271 | 2.0 | 6.0 | 0.00 | 0.00 | 0.00 | 39 | 1014.6 |
| 20260508000003 | 70 | 291 | 2.0 | 5.0 | 0.00 | 0.00 | 0.00 | 40 | 1014.6 |
| 20260507235718 | 70 | 264 | 2.0 | 8.0 | 0.00 | 0.00 | 0.00 | 39 | 1014.6 |
| 20260507235003 | 70 | 250 | 2.0 | 8.0 | 0.00 | 0.00 | 0.00 | 39 | 1014.7 |
| 20260507234718 | 70 | 265 | 2.0 | 5.0 | 0.00 | 0.00 | 0.00 | 39 | 1014.7 |
| 20260507234003 | 70 | 275 | 2.0 | 6.0 | 0.00 | 0.00 | 0.00 | 42 | 1014.7 |
| 20260507233503 | 70 | 237 | 2.0 | 8.0 | 0.00 | 0.00 | 0.00 | 40 | 1014.6 |
| 20260507233003 | 70 | 236 | 2.0 | 8.0 | 0.00 | 0.00 | 0.00 | 41 | 1014.6 |
| 20260507232503 | 70 | 253 | 2.0 | 8.0 | 0.00 | 0.00 | 0.00 | 42 | 1014.7 |
| 20260507232003 | 70 | 259 | 2.0 | 8.0 | 0.00 | 0.00 | 0.00 | 41 | 1014.7 |
| 20260507231503 | 70 | 269 | 2.0 | 6.0 | 0.00 | 0.00 | 0.00 | 42 | 1014.8 |
| 20260507231003 | 69 | 256 | 2.0 | 6.0 | 0.00 | 0.00 | 0.00 | 42 | 1014.8 |
| 20260507230503 | 70 | 243 | 2.0 | 6.0 | 0.00 | 0.00 | 0.00 | 42 | 1014.9 |
| 20260507230217 | 70 | 254 | 2.0 | 6.0 | 0.00 | 0.00 | 0.00 | 40 | 1014.9 |
| 20260507225503 | 69 | 243 | 3.0 | 8.0 | 0.00 | 0.00 | 0.00 | 44 | 1014.9 |
| 20260507225003 | 69 | 238 | 3.0 | 8.0 | 0.00 | 0.00 | 0.00 | 39 | 1014.9 |
| 20260507224504 | 69 | 243 | 4.0 | 9.0 | 0.00 | 0.00 | 0.00 | 41 | 1015.0 |
| 20260507224217 | 69 | 242 | 4.0 | 9.0 | 0.00 | 0.00 | 0.00 | 43 | 1015.0 |
| 20260507223503 | 69 | 234 | 5.0 | 10.0 | 0.00 | 0.00 | 0.00 | 41 | 1015.0 |
| 20260507223003 | 68 | 237 | 4.0 | 10.0 | 0.00 | 0.00 | 0.00 | 41 | 1015.2 |
| 20260507222503 | 69 | 233 | 4.0 | 9.0 | 0.00 | 0.00 | 0.00 | 41 | 1015.1 |
| 20260507222003 | 69 | 228 | 4.0 | 10.0 | 0.00 | 0.00 | 0.00 | 40 | 1015.2 |
| 20260507221503 | 69 | 222 | 3.0 | 10.0 | 0.00 | 0.00 | 0.00 | 41 | 1015.3 |
| 20260507221216 | 69 | 222 | 3.0 | 10.0 | 0.00 | 0.00 | 0.00 | 41 | 1015.3 |
| 20260507220717 | 69 | 227 | 4.0 | 7.0 | 0.00 | 0.00 | 0.00 | 42 | 1015.4 |
| 20260507220003 | 69 | 220 | 4.0 | 9.0 | 0.00 | 0.00 | 0.00 | 40 | 1015.4 |
| 20260507215503 | 69 | 219 | 4.0 | 12.0 | 0.00 | 0.00 | 0.00 | 39 | 1015.5 |
| 20260507215216 | 69 | 218 | 3.0 | 12.0 | 0.00 | 0.00 | 0.00 | 41 | 1015.5 |
| 20260507214503 | 69 | 226 | 3.0 | 8.0 | 0.00 | 0.00 | 0.00 | 40 | 1015.6 |
| 20260507214003 | 69 | 232 | 2.0 | 7.0 | 0.00 | 0.00 | 0.00 | 40 | 1015.6 |
| 20260507213503 | 70 | 249 | 2.0 | 6.0 | 0.00 | 0.00 | 0.00 | 42 | 1015.6 |
| 20260507213003 | 69 | 238 | 3.0 | 5.0 | 0.00 | 0.00 | 0.00 | 43 | 1015.7 |
| 20260507212503 | 68 | 222 | 4.0 | 9.0 | 0.00 | 0.00 | 0.00 | 43 | 1015.7 |
| 20260507212003 | 69 | 232 | 4.0 | 12.0 | 0.00 | 0.00 | 0.00 | 42 | 1015.7 |
| 20260507211717 | 69 | 231 | 4.0 | 12.0 | 0.00 | 0.00 | 0.00 | 43 | 1015.7 |
| 20260507211003 | 68 | 232 | 3.0 | 11.0 | 0.00 | 0.00 | 0.00 | 43 | 1015.8 |
| 20260507210503 | 69 | 246 | 3.0 | 9.0 | 0.00 | 0.00 | 0.00 | 43 | 1015.7 |
| 20260507210218 | 68 | 251 | 3.0 | 9.0 | 0.00 | 0.00 | 0.00 | 45 | 1015.8 |
| 20260507205503 | 68 | 238 | 4.0 | 12.0 | 0.00 | 0.00 | 0.00 | 45 | 1015.9 |
| 20260507205003 | 68 | 228 | 4.0 | 12.0 | 0.00 | 0.00 | 0.00 | 44 | 1015.9 |
| 20260507204503 | 68 | 227 | 4.0 | 9.0 | 0.00 | 0.00 | 0.00 | 45 | 1015.9 |
| 20260507204003 | 68 | 227 | 5.0 | 9.0 | 0.00 | 0.00 | 0.00 | 46 | 1015.9 |
| 20260507203503 | 68 | 226 | 4.0 | 10.0 | 0.00 | 0.00 | 0.00 | 45 | 1015.9 |
| 20260507203003 | 68 | 233 | 3.0 | 12.0 | 0.00 | 0.00 | 0.00 | 45 | 1015.9 |
| 20260507202503 | 68 | 241 | 3.0 | 12.0 | 0.00 | 0.00 | 0.00 | 46 | 1015.8 |
| 20260507202003 | 68 | 273 | 3.0 | 9.0 | 0.00 | 0.00 | 0.00 | 46 | 1015.9 |
| 20260507201503 | 68 | 322 | 3.0 | 7.0 | 0.00 | 0.00 | 0.00 | 47 | 1015.8 |
| 20260507201003 | 68 | 247 | 3.0 | 9.0 | 0.00 | 0.00 | 0.00 | 47 | 1015.9 |
| 20260507200503 | 68 | 232 | 2.0 | 10.0 | 0.00 | 0.00 | 0.00 | 47 | 1016.0 |
| 20260507200003 | 68 | 248 | 2.0 | 10.0 | 0.00 | 0.00 | 0.00 | 46 | 1015.9 |
| 20260507195503 | 68 | 249 | 3.0 | 7.0 | 0.00 | 0.00 | 0.00 | 49 | 1015.9 |
| 20260507195004 | 68 | 233 | 2.0 | 9.0 | 0.00 | 0.00 | 0.00 | 46 | 1016.0 |
| 20260507194503 | 68 | 235 | 2.0 | 9.0 | 0.00 | 0.00 | 0.00 | 47 | 1015.9 |
| 20260507194003 | 68 | 288 | 2.0 | 6.0 | 0.00 | 0.00 | 0.00 | 48 | 1015.9 |
| 20260507193717 | 68 | 265 | 3.0 | 7.0 | 0.00 | 0.00 | 0.00 | 47 | 1015.9 |
| 20260507193218 | 68 | 230 | 3.0 | 7.0 | 0.00 | 0.00 | 0.00 | 47 | 1016.0 |
| 20260507192717 | 67 | 228 | 3.0 | 7.0 | 0.00 | 0.00 | 0.00 | 48 | 1015.9 |
| 20260507192217 | 67 | 233 | 3.0 | 7.0 | 0.00 | 0.00 | 0.00 | 50 | 1015.9 |
| 20260507191503 | 67 | 232 | 2.0 | 8.0 | 0.00 | 0.00 | 0.00 | 46 | 1016.0 |
| 20260507191003 | 67 | 243 | 3.0 | 6.0 | 0.00 | 0.00 | 0.00 | 50 | 1016.0 |
| 20260507190503 | 66 | 233 | 2.0 | 7.0 | 0.00 | 0.00 | 0.00 | 49 | 1016.1 |
| 20260507190004 | 66 | 234 | 2.0 | 7.0 | 0.00 | 0.00 | 0.00 | 51 | 1016.0 |
| 20260507185503 | 66 | 240 | 2.0 | 8.0 | 0.00 | 0.00 | 0.00 | 49 | 1016.0 |
| 20260507185008 | 67 | 239 | 2.0 | 8.0 | 0.00 | 0.00 | 0.00 | 50 | 1016.0 |
| 20260507184503 | 67 | 244 | 2.0 | 6.0 | 0.00 | 0.00 | 0.00 | 48 | 1016.1 |
| 20260507184217 | 67 | 246 | 3.0 | 6.0 | 0.00 | 0.00 | 0.00 | 50 | 1016.1 |
| 20260507183503 | 67 | 191 | 3.0 | 7.0 | 0.00 | 0.00 | 0.00 | 48 | 1016.1 |
| 20260507183003 | 67 | 197 | 3.0 | 8.0 | 0.00 | 0.00 | 0.00 | 48 | 1016.1 |
| 20260507182503 | 67 | 198 | 3.0 | 8.0 | 0.00 | 0.00 | 0.00 | 48 | 1016.1 |
| 20260507182003 | 67 | 183 | 3.0 | 7.0 | 0.00 | 0.00 | 0.00 | 47 | 1016.1 |
| 20260507181503 | 67 | 174 | 4.0 | 7.0 | 0.00 | 0.00 | 0.00 | 48 | 1016.1 |
| 20260507181003 | 67 | 167 | 4.0 | 7.0 | 0.00 | 0.00 | 0.00 | 49 | 1016.1 |
| 20260507180503 | 67 | 175 | 4.0 | 12.0 | 0.00 | 0.00 | 0.00 | 50 | 1016.0 |
| 20260507180003 | 66 | 193 | 3.0 | 12.0 | 0.00 | 0.00 | 0.00 | 50 | 1016.1 |
| 20260507175503 | 66 | 210 | 2.0 | 8.0 | 0.00 | 0.00 | 0.00 | 50 | 1016.0 |
| 20260507175003 | 66 | 225 | 2.0 | 8.0 | 0.00 | 0.00 | 0.00 | 51 | 1016.0 |
| 20260507174504 | 66 | 240 | 2.0 | 8.0 | 0.00 | 0.00 | 0.00 | 50 | 1016.1 |
| 20260507174003 | 66 | 239 | 2.0 | 6.0 | 0.00 | 0.00 | 0.00 | 53 | 1015.9 |
| 20260507173503 | 65 | 231 | 2.0 | 6.0 | 0.00 | 0.00 | 0.00 | 51 | 1015.9 |
| 20260507173003 | 65 | 212 | 3.0 | 6.0 | 0.00 | 0.00 | 0.00 | 51 | 1016.0 |
| 20260507172503 | 65 | 203 | 3.0 | 9.0 | 0.00 | 0.00 | 0.00 | 53 | 1016.0 |
| 20260507172003 | 64 | 211 | 1.0 | 9.0 | 0.00 | 0.00 | 0.00 | 53 | 1016.1 |
| 20260507171503 | 64 | 266 | 1.0 | 6.0 | 0.00 | 0.00 | 0.00 | 54 | 1016.1 |
| 20260507171217 | 64 | 280 | 1.0 | 6.0 | 0.00 | 0.00 | 0.00 | 55 | 1016.2 |
| 20260507170503 | 64 | 232 | 1.0 | 5.0 | 0.00 | 0.00 | 0.00 | 55 | 1016.2 |
| 20260507170217 | 64 | 221 | 1.0 | 5.0 | 0.00 | 0.00 | 0.00 | 54 | 1016.2 |
| 20260507165503 | 63 | 218 | 2.0 | 6.0 | 0.00 | 0.00 | 0.00 | 55 | 1016.1 |
| 20260507165217 | 63 | 234 | 1.0 | 6.0 | 0.00 | 0.00 | 0.00 | 56 | 1016.1 |
| 20260507164503 | 63 | 220 | 2.0 | 5.0 | 0.00 | 0.00 | 0.00 | 58 | 1016.1 |
| 20260507164003 | 62 | 222 | 2.0 | 6.0 | 0.00 | 0.00 | 0.00 | 57 | 1016.1 |
| 20260507163717 | 62 | 237 | 2.0 | 6.0 | 0.00 | 0.00 | 0.00 | 58 | 1016.2 |
| 20260507163003 | 62 | 244 | 1.0 | 6.0 | 0.00 | 0.00 | 0.00 | 56 | 1016.2 |
| 20260507162503 | 62 | 239 | 2.0 | 6.0 | 0.00 | 0.00 | 0.00 | 59 | 1016.2 |
| 20260507162003 | 61 | 239 | 2.0 | 7.0 | 0.00 | 0.00 | 0.00 | 58 | 1016.3 |
| 20260507161503 | 60 | 244 | 2.0 | 7.0 | 0.00 | 0.00 | 0.00 | 58 | 1016.3 |
| 20260507161003 | 60 | 249 | 2.0 | 6.0 | 0.00 | 0.00 | 0.00 | 59 | 1016.3 |
| 20260507160503 | 60 | 231 | 2.0 | 7.0 | 0.00 | 0.00 | 0.00 | 59 | 1016.2 |
| 20260507160003 | 60 | 229 | 1.0 | 7.0 | 0.00 | 0.00 | 0.00 | 59 | 1016.3 |
| 20260507155503 | 61 | 239 | 1.0 | 6.0 | 0.00 | 0.00 | 0.00 | 58 | 1016.3 |
| 20260507155003 | 60 | 233 | 1.0 | 5.0 | 0.00 | 0.00 | 0.00 | 59 | 1016.2 |
| 20260507154503 | 60 | 246 | 2.0 | 5.0 | 0.00 | 0.00 | 0.00 | 60 | 1016.2 |
| 20260507154004 | 59 | 234 | 3.0 | 6.0 | 0.00 | 0.00 | 0.00 | 62 | 1016.2 |
| 20260507153504 | 59 | 226 | 4.0 | 7.0 | 0.00 | 0.00 | 0.00 | 62 | 1016.1 |
| 20260507153003 | 59 | 226 | 4.0 | 8.0 | 0.00 | 0.00 | 0.00 | 62 | 1016.1 |
| 20260507152503 | 58 | 229 | 4.0 | 9.0 | 0.00 | 0.00 | 0.00 | 60 | 1016.0 |
| 20260507152003 | 58 | 225 | 5.0 | 9.0 | 0.00 | 0.00 | 0.00 | 62 | 1016.1 |
| 20260507151504 | 58 | 221 | 5.0 | 8.0 | 0.00 | 0.00 | 0.00 | 63 | 1016.1 |
| 20260507151218 | 58 | 222 | 4.0 | 8.0 | 0.00 | 0.00 | 0.00 | 62 | 1016.1 |
| 20260507150503 | 57 | 227 | 4.0 | 12.0 | 0.00 | 0.00 | 0.00 | 63 | 1016.1 |
| 20260507150003 | 58 | 231 | 4.0 | 8.0 | 0.00 | 0.00 | 0.00 | 63 | 1016.1 |
| 20260507145503 | 58 | 236 | 3.0 | 10.0 | 0.00 | 0.00 | 0.00 | 63 | 1016.1 |
| 20260507145003 | 58 | 239 | 3.0 | 10.0 | 0.00 | 0.00 | 0.00 | 62 | 1016.0 |
| 20260507144503 | 58 | 230 | 3.0 | 8.0 | 0.00 | 0.00 | 0.00 | 63 | 1016.0 |
| 20260507144003 | 58 | 222 | 3.0 | 8.0 | 0.00 | 0.00 | 0.00 | 63 | 1016.1 |
| 20260507143503 | 58 | 222 | 3.0 | 8.0 | 0.00 | 0.00 | 0.00 | 62 | 1016.1 |
| 20260507143003 | 58 | 225 | 3.0 | 7.0 | 0.00 | 0.00 | 0.00 | 62 | 1016.1 |
| 20260507142503 | 58 | 234 | 2.0 | 7.0 | 0.00 | 0.00 | 0.00 | 62 | 1016.0 |
| 20260507142219 | 58 | 236 | 1.0 | 7.0 | 0.00 | 0.00 | 0.00 | 64 | 1016.0 |
| 20260507141717 | 57 | 245 | 1.0 | 7.0 | 0.00 | 0.00 | 0.00 | 63 | 1016.0 |
| 20260507141003 | 57 | 0 | 0.0 | 3.0 | 0.00 | 0.00 | 0.00 | 65 | 1015.8 |
| 20260507140503 | 57 | 0 | 0.0 | 3.0 | 0.00 | 0.00 | 0.00 | 64 | 1015.8 |
| 20260507140004 | 56 | 0 | 0.0 | 2.0 | 0.00 | 0.00 | 0.00 | 67 | 1015.7 |
| 20260507135503 | 55 | 231 | 0.0 | 2.0 | 0.00 | 0.00 | 0.00 | 68 | 1015.6 |
| 20260507135003 | 54 | 229 | 1.0 | 2.0 | 0.00 | 0.00 | 0.00 | 69 | 1015.6 |
| 20260507134503 | 54 | 228 | 3.0 | 2.0 | 0.00 | 0.00 | 0.00 | 70 | 1015.5 |
| 20260507134003 | 53 | 215 | 5.0 | 1.0 | 0.00 | 0.00 | 0.00 | 72 | 1015.4 |
| 20260507133503 | 52 | 0 | 5.0 | 0.0 | 0.00 | 0.00 | 0.00 | 67 | 1015.3 |
| 20260507133003 | 54 | 212 | 5.0 | 9.0 | 0.00 | 0.00 | 0.00 | 67 | 1015.3 |
| 20260507132503 | 54 | 212 | 5.0 | 9.0 | 0.00 | 0.00 | 0.00 | 67 | 1015.2 |
| 20260507132003 | 54 | 212 | 5.0 | 9.0 | 0.00 | 0.00 | 0.00 | 67 | 1015.1 |
| 20260507131503 | 54 | 212 | 5.0 | 9.0 | 0.00 | 0.00 | 0.00 | 67 | 1015.0 |
| 20260507131003 | 54 | 212 | 5.0 | 9.0 | 0.00 | 0.00 | 0.00 | 67 | 1015.0 |
| 20260507130503 | 54 | 212 | 5.0 | 9.0 | 0.00 | 0.00 | 0.00 | 67 | 1014.9 |
| 20260507130003 | 54 | 212 | 5.0 | 9.0 | 0.00 | 0.00 | 0.00 | 67 | 1014.8 |
| 20260507125503 | 54 | 212 | 5.0 | 9.0 | 0.00 | 0.00 | 0.00 | 67 | 1014.9 |
| 20260507125003 | 54 | 212 | 5.0 | 9.0 | 0.00 | 0.00 | 0.00 | 67 | 1014.9 |
| 20260507124718 | 54 | 212 | 5.0 | 9.0 | 0.00 | 0.00 | 0.00 | 67 | 1014.9 |
| 20260507124217 | 54 | 212 | 5.0 | 9.0 | 0.00 | 0.00 | 0.00 | 67 | 1014.9 |
| 20260507123503 | 54 | 212 | 5.0 | 9.0 | 0.00 | 0.00 | 0.00 | 67 | 1014.8 |
| 20260507123003 | 54 | 212 | 5.0 | 9.0 | 0.00 | 0.00 | 0.00 | 67 | 1014.8 |
| 20260507122503 | 54 | 217 | 5.0 | 9.0 | 0.00 | 0.00 | 0.00 | 67 | 1014.7 |
| 20260507122003 | 54 | 223 | 6.0 | 9.0 | 0.00 | 0.00 | 0.00 | 67 | 1014.7 |
| 20260507121503 | 54 | 224 | 6.0 | 11.0 | 0.00 | 0.00 | 0.00 | 67 | 1014.6 |
| 20260507121003 | 54 | 221 | 6.0 | 13.0 | 0.00 | 0.00 | 0.00 | 67 | 1014.7 |
| 20260507120503 | 54 | 220 | 5.0 | 13.0 | 0.00 | 0.00 | 0.00 | 67 | 1014.6 |
| 20260507120004 | 53 | 226 | 4.0 | 11.0 | 0.00 | 0.00 | 0.00 | 68 | 1014.6 |
| 20260507115503 | 53 | 228 | 4.0 | 9.0 | 0.00 | 0.00 | 0.00 | 68 | 1014.6 |
| 20260507115217 | 53 | 224 | 4.0 | 8.0 | 0.00 | 0.00 | 0.00 | 69 | 1014.7 |
| 20260507114718 | 53 | 214 | 4.0 | 7.0 | 0.00 | 0.00 | 0.00 | 69 | 1014.7 |
| 20260507114003 | 53 | 213 | 5.0 | 6.0 | 0.00 | 0.00 | 0.00 | 69 | 1014.7 |
| 20260507113503 | 53 | 213 | 5.0 | 8.0 | 0.00 | 0.00 | 0.00 | 69 | 1014.8 |
| 20260507113003 | 53 | 215 | 4.0 | 10.0 | 0.00 | 0.00 | 0.00 | 68 | 1014.6 |
| 20260507112503 | 53 | 219 | 3.0 | 10.0 | 0.00 | 0.00 | 0.00 | 68 | 1014.6 |
| 20260507112003 | 53 | 224 | 4.0 | 8.0 | 0.00 | 0.00 | 0.00 | 68 | 1014.6 |
| 20260507111717 | 53 | 228 | 4.0 | 7.0 | 0.00 | 0.00 | 0.00 | 68 | 1014.6 |
| 20260507111003 | 53 | 226 | 4.0 | 8.0 | 0.00 | 0.00 | 0.00 | 67 | 1014.5 |
| 20260507110503 | 54 | 218 | 5.0 | 8.0 | 0.00 | 0.00 | 0.00 | 67 | 1014.6 |
| 20260507110003 | 54 | 212 | 5.0 | 8.0 | 0.00 | 0.00 | 0.00 | 67 | 1014.6 |
| 20260507105717 | 54 | 211 | 5.0 | 8.0 | 0.00 | 0.00 | 0.00 | 67 | 1014.5 |
| 20260507105003 | 54 | 212 | 5.0 | 7.0 | 0.00 | 0.00 | 0.00 | 66 | 1014.5 |
| 20260507104504 | 54 | 214 | 5.0 | 8.0 | 0.00 | 0.00 | 0.00 | 66 | 1014.4 |
| 20260507104218 | 54 | 214 | 5.0 | 8.0 | 0.00 | 0.00 | 0.00 | 65 | 1014.5 |
| 20260507103503 | 55 | 215 | 5.0 | 7.0 | 0.00 | 0.00 | 0.00 | 65 | 1014.3 |
| 20260507103003 | 55 | 214 | 5.0 | 7.0 | 0.00 | 0.00 | 0.00 | 64 | 1014.4 |
| 20260507102503 | 56 | 214 | 5.0 | 9.0 | 0.00 | 0.00 | 0.00 | 63 | 1014.3 |
| 20260507102003 | 56 | 214 | 6.0 | 9.0 | 0.00 | 0.00 | 0.00 | 63 | 1014.5 |
| 20260507101503 | 56 | 216 | 6.0 | 12.0 | 0.00 | 0.00 | 0.00 | 62 | 1014.5 |
| 20260507101003 | 56 | 216 | 7.0 | 12.0 | 0.00 | 0.00 | 0.00 | 61 | 1014.3 |
| 20260507100503 | 57 | 217 | 8.0 | 13.0 | 0.00 | 0.00 | 0.00 | 61 | 1014.5 |
| 20260507100218 | 57 | 218 | 9.0 | 13.0 | 0.00 | 0.00 | 0.00 | 61 | 1014.3 |
| 20260507095503 | 57 | 224 | 11.0 | 20.0 | 0.00 | 0.00 | 0.00 | 60 | 1014.3 |
| 20260507095218 | 58 | 225 | 11.0 | 20.0 | 0.00 | 0.00 | 0.00 | 60 | 1014.2 |
| 20260507094503 | 58 | 223 | 11.0 | 22.0 | 0.00 | 0.00 | 0.00 | 59 | 1014.1 |
| 20260507094009 | 58 | 224 | 11.0 | 18.0 | 0.00 | 0.00 | 0.00 | 60 | 1014.0 |
| 20260507093717 | 58 | 223 | 11.0 | 21.0 | 0.00 | 0.00 | 0.00 | 60 | 1014.0 |
| 20260507093003 | 58 | 224 | 10.0 | 21.0 | 0.00 | 0.00 | 0.00 | 59 | 1013.9 |
| 20260507092503 | 58 | 225 | 10.0 | 19.0 | 0.00 | 0.00 | 0.00 | 59 | 1013.9 |
| 20260507092003 | 58 | 225 | 9.0 | 19.0 | 0.00 | 0.00 | 0.00 | 59 | 1013.7 |
| 20260507091503 | 58 | 221 | 7.0 | 16.0 | 0.00 | 0.00 | 0.00 | 60 | 1013.7 |
| 20260507091003 | 58 | 220 | 7.0 | 16.0 | 0.00 | 0.00 | 0.00 | 60 | 1013.8 |
| 20260507090503 | 58 | 220 | 8.0 | 14.0 | 0.00 | 0.00 | 0.00 | 60 | 1013.8 |
| 20260507090004 | 58 | 214 | 8.0 | 14.0 | 0.00 | 0.00 | 0.00 | 60 | 1013.8 |
| 20260507085504 | 58 | 212 | 9.0 | 13.0 | 0.00 | 0.00 | 0.00 | 58 | 1013.9 |
| 20260507085003 | 58 | 212 | 10.0 | 17.0 | 0.00 | 0.00 | 0.00 | 58 | 1014.0 |
| 20260507084503 | 59 | 215 | 10.0 | 17.0 | 0.00 | 0.00 | 0.00 | 57 | 1014.1 |
| 20260507084003 | 59 | 217 | 9.0 | 16.0 | 0.00 | 0.00 | 0.00 | 56 | 1014.1 |
| 20260507083717 | 59 | 215 | 9.0 | 16.0 | 0.00 | 0.00 | 0.00 | 56 | 1014.0 |
| 20260507083217 | 59 | 214 | 9.0 | 16.0 | 0.00 | 0.00 | 0.00 | 55 | 1013.9 |
| 20260507082503 | 60 | 218 | 9.0 | 18.0 | 0.00 | 0.00 | 0.00 | 52 | 1013.7 |
| 20260507082218 | 60 | 219 | 9.0 | 18.0 | 0.00 | 0.00 | 0.00 | 52 | 1013.7 |
| 20260507081503 | 60 | 216 | 8.0 | 16.0 | 0.00 | 0.00 | 0.00 | 51 | 1013.7 |
| 20260507081003 | 61 | 218 | 9.0 | 19.0 | 0.00 | 0.00 | 0.00 | 50 | 1013.7 |
| 20260507080503 | 61 | 222 | 9.0 | 19.0 | 0.00 | 0.00 | 0.00 | 49 | 1013.7 |
| 20260507080003 | 61 | 223 | 8.0 | 19.0 | 0.00 | 0.00 | 0.00 | 49 | 1013.7 |
| 20260507075718 | 61 | 221 | 7.0 | 18.0 | 0.00 | 0.00 | 0.00 | 48 | 1013.7 |
| 20260507075003 | 62 | 224 | 6.0 | 17.0 | 0.00 | 0.00 | 0.00 | 48 | 1013.8 |
| 20260507074503 | 62 | 228 | 5.0 | 17.0 | 0.00 | 0.00 | 0.00 | 47 | 1013.7 |
| 20260507074003 | 62 | 231 | 6.0 | 17.0 | 0.00 | 0.00 | 0.00 | 46 | 1013.7 |
| 20260507073503 | 62 | 230 | 6.0 | 16.0 | 0.00 | 0.00 | 0.00 | 46 | 1013.6 |
| 20260507073003 | 62 | 231 | 7.0 | 14.0 | 0.00 | 0.00 | 0.00 | 46 | 1013.5 |
| 20260507072503 | 62 | 229 | 8.0 | 14.0 | 0.00 | 0.00 | 0.00 | 46 | 1013.4 |
| 20260507072003 | 62 | 225 | 9.0 | 14.0 | 0.00 | 0.00 | 0.00 | 46 | 1013.4 |
| 20260507071509 | 62 | 222 | 9.0 | 14.0 | 0.00 | 0.00 | 0.00 | 47 | 1013.5 |
| 20260507071003 | 63 | 223 | 9.0 | 16.0 | 0.00 | 0.00 | 0.00 | 46 | 1013.5 |
| 20260507070503 | 63 | 223 | 9.0 | 16.0 | 0.00 | 0.00 | 0.00 | 46 | 1013.5 |
| 20260507070008 | 63 | 220 | 11.0 | 18.0 | 0.00 | 0.00 | 0.00 | 46 | 1013.4 |
| 20260507065503 | 63 | 218 | 10.0 | 19.0 | 0.00 | 0.00 | 0.00 | 45 | 1013.4 |
| 20260507065003 | 63 | 218 | 9.0 | 20.0 | 0.00 | 0.00 | 0.00 | 45 | 1013.4 |
| 20260507064503 | 63 | 222 | 9.0 | 20.0 | 0.00 | 0.00 | 0.00 | 45 | 1013.3 |
| 20260507064003 | 63 | 226 | 9.0 | 18.0 | 0.00 | 0.00 | 0.00 | 46 | 1013.3 |
| 20260507063503 | 63 | 223 | 10.0 | 17.0 | 0.00 | 0.00 | 0.00 | 46 | 1013.2 |
| 20260507063003 | 64 | 220 | 11.0 | 18.0 | 0.00 | 0.00 | 0.00 | 45 | 1013.1 |
| 20260507062503 | 64 | 221 | 12.0 | 19.0 | 0.00 | 0.00 | 0.00 | 45 | 1013.0 |
| 20260507062003 | 64 | 221 | 12.0 | 20.0 | 0.00 | 0.00 | 0.00 | 46 | 1012.8 |
| 20260507061503 | 64 | 219 | 12.0 | 22.0 | 0.00 | 0.00 | 0.00 | 47 | 1012.8 |
| 20260507061003 | 64 | 221 | 12.0 | 23.0 | 0.00 | 0.00 | 0.00 | 47 | 1012.8 |
| 20260507060503 | 64 | 222 | 12.0 | 23.0 | 0.00 | 0.00 | 0.00 | 48 | 1012.7 |
| 20260507060003 | 65 | 223 | 13.0 | 26.0 | 0.00 | 0.00 | 0.00 | 48 | 1012.8 |
| 20260507055503 | 65 | 223 | 14.0 | 26.0 | 0.00 | 0.00 | 0.00 | 48 | 1012.8 |
| 20260507055003 | 65 | 222 | 14.0 | 22.0 | 0.00 | 0.00 | 0.00 | 48 | 1012.8 |
| 20260507054503 | 65 | 222 | 13.0 | 24.0 | 0.00 | 0.00 | 0.00 | 48 | 1012.8 |
| 20260507054003 | 65 | 223 | 12.0 | 24.0 | 0.00 | 0.00 | 0.00 | 46 | 1012.8 |
| 20260507053503 | 65 | 224 | 11.0 | 23.0 | 0.00 | 0.00 | 0.00 | 45 | 1012.8 |
| 20260507053003 | 65 | 218 | 10.0 | 23.0 | 0.00 | 0.00 | 0.00 | 46 | 1012.7 |
| 20260507052503 | 65 | 218 | 9.0 | 23.0 | 0.00 | 0.00 | 0.00 | 46 | 1012.8 |
| 20260507052216 | 65 | 218 | 10.0 | 23.0 | 0.00 | 0.00 | 0.00 | 46 | 1012.7 |
| 20260507051503 | 66 | 223 | 11.0 | 20.0 | 0.00 | 0.00 | 0.00 | 47 | 1012.7 |
| 20260507051003 | 66 | 224 | 10.0 | 20.0 | 0.00 | 0.00 | 0.00 | 46 | 1012.6 |
| 20260507050503 | 66 | 223 | 10.0 | 23.0 | 0.00 | 0.00 | 0.00 | 48 | 1012.7 |
| 20260507050003 | 66 | 220 | 10.0 | 23.0 | 0.00 | 0.00 | 0.00 | 50 | 1012.8 |
| 20260507045503 | 66 | 218 | 11.0 | 17.0 | 0.00 | 0.00 | 0.00 | 50 | 1012.8 |
| 20260507045003 | 66 | 222 | 10.0 | 19.0 | 0.00 | 0.00 | 0.00 | 50 | 1012.8 |
| 20260507044503 | 66 | 221 | 9.0 | 19.0 | 0.00 | 0.00 | 0.00 | 50 | 1012.8 |
| 20260507044003 | 66 | 218 | 8.0 | 16.0 | 0.00 | 0.00 | 0.00 | 50 | 1012.8 |
| 20260507043717 | 66 | 219 | 8.0 | 16.0 | 0.00 | 0.00 | 0.00 | 50 | 1012.7 |
| 20260507043218 | 67 | 220 | 8.0 | 17.0 | 0.00 | 0.00 | 0.00 | 49 | 1012.8 |
| 20260507042503 | 67 | 222 | 9.0 | 17.0 | 0.00 | 0.00 | 0.00 | 47 | 1012.8 |
| 20260507042003 | 67 | 224 | 10.0 | 18.0 | 0.00 | 0.00 | 0.00 | 48 | 1012.9 |
| 20260507041503 | 67 | 222 | 10.0 | 18.0 | 0.00 | 0.00 | 0.00 | 47 | 1012.8 |
| 20260507041003 | 67 | 221 | 9.0 | 20.0 | 0.00 | 0.00 | 0.00 | 47 | 1012.8 |
| 20260507040503 | 67 | 219 | 9.0 | 20.0 | 0.00 | 0.00 | 0.00 | 47 | 1012.9 |
| 20260507040004 | 68 | 218 | 9.0 | 18.0 | 0.00 | 0.00 | 0.00 | 48 | 1012.8 |
| 20260507035504 | 68 | 216 | 9.0 | 18.0 | 0.00 | 0.00 | 0.00 | 48 | 1012.8 |
| 20260507035003 | 68 | 216 | 10.0 | 15.0 | 0.00 | 0.00 | 0.00 | 49 | 1012.7 |
| 20260507034717 | 68 | 219 | 11.0 | 18.0 | 0.00 | 0.00 | 0.00 | 49 | 1012.7 |
| 20260507034003 | 68 | 218 | 11.0 | 21.0 | 0.00 | 0.00 | 0.00 | 47 | 1012.7 |
| 20260507033716 | 68 | 217 | 10.0 | 21.0 | 0.00 | 0.00 | 0.00 | 47 | 1012.7 |
| 20260507033003 | 68 | 219 | 9.0 | 21.0 | 0.00 | 0.00 | 0.00 | 47 | 1012.7 |
| 20260507032503 | 68 | 221 | 9.0 | 17.0 | 0.00 | 0.00 | 0.00 | 46 | 1012.7 |
| 20260507032004 | 69 | 222 | 9.0 | 18.0 | 0.00 | 0.00 | 0.00 | 45 | 1012.7 |
| 20260507031503 | 69 | 222 | 7.0 | 18.0 | 0.00 | 0.00 | 0.00 | 44 | 1012.7 |
| 20260507031003 | 69 | 221 | 6.0 | 15.0 | 0.00 | 0.00 | 0.00 | 44 | 1012.6 |
| 20260507030503 | 69 | 219 | 6.0 | 12.0 | 0.00 | 0.00 | 0.00 | 44 | 1012.7 |
| 20260507030003 | 69 | 217 | 6.0 | 10.0 | 0.00 | 0.00 | 0.00 | 45 | 1012.7 |
| 20260507025503 | 69 | 218 | 7.0 | 11.0 | 0.00 | 0.00 | 0.00 | 45 | 1012.7 |
| 20260507025003 | 69 | 222 | 8.0 | 13.0 | 0.00 | 0.00 | 0.00 | 45 | 1012.6 |
| 20260507024503 | 69 | 224 | 8.0 | 13.0 | 0.00 | 0.00 | 0.00 | 44 | 1012.6 |
| 20260507024003 | 70 | 220 | 8.0 | 13.0 | 0.00 | 0.00 | 0.00 | 44 | 1012.6 |
| 20260507023503 | 70 | 219 | 8.0 | 14.0 | 0.00 | 0.00 | 0.00 | 43 | 1012.6 |
| 20260507023003 | 70 | 221 | 8.0 | 14.0 | 0.00 | 0.00 | 0.00 | 44 | 1012.6 |
| 20260507022503 | 70 | 218 | 7.0 | 13.0 | 0.00 | 0.00 | 0.00 | 44 | 1012.6 |
| 20260507022217 | 70 | 218 | 7.0 | 13.0 | 0.00 | 0.00 | 0.00 | 43 | 1012.6 |
| 20260507021503 | 70 | 220 | 7.0 | 13.0 | 0.00 | 0.00 | 0.00 | 43 | 1012.6 |
| 20260507021217 | 70 | 221 | 7.0 | 13.0 | 0.00 | 0.00 | 0.00 | 43 | 1012.5 |
| 20260507020503 | 70 | 220 | 6.0 | 14.0 | 0.00 | 0.00 | 0.00 | 42 | 1012.5 |
| 20260507020217 | 70 | 218 | 5.0 | 14.0 | 0.00 | 0.00 | 0.00 | 43 | 1012.4 |
| 20260507015503 | 70 | 222 | 4.0 | 9.0 | 0.00 | 0.00 | 0.00 | 44 | 1012.6 |
| 20260507015003 | 70 | 227 | 4.0 | 9.0 | 0.00 | 0.00 | 0.00 | 44 | 1012.6 |
| 20260507014503 | 70 | 230 | 4.0 | 6.0 | 0.00 | 0.00 | 0.00 | 44 | 1012.6 |
| 20260507014003 | 70 | 226 | 4.0 | 9.0 | 0.00 | 0.00 | 0.00 | 43 | 1012.6 |
| 20260507013503 | 70 | 228 | 3.0 | 9.0 | 0.00 | 0.00 | 0.00 | 42 | 1012.6 |
| 20260507013003 | 71 | 227 | 3.0 | 7.0 | 0.00 | 0.00 | 0.00 | 42 | 1012.7 |
| 20260507012718 | 71 | 223 | 4.0 | 6.0 | 0.00 | 0.00 | 0.00 | 42 | 1012.7 |
| 20260507012003 | 71 | 217 | 5.0 | 11.0 | 0.00 | 0.00 | 0.00 | 41 | 1012.7 |
| 20260507011503 | 71 | 221 | 6.0 | 11.0 | 0.00 | 0.00 | 0.00 | 40 | 1012.7 |
| 20260507011003 | 71 | 221 | 5.0 | 11.0 | 0.00 | 0.00 | 0.00 | 40 | 1012.8 |
| 20260507010503 | 71 | 217 | 5.0 | 10.0 | 0.00 | 0.00 | 0.00 | 40 | 1012.7 |
| 20260507010003 | 71 | 220 | 5.0 | 9.0 | 0.00 | 0.00 | 0.00 | 42 | 1012.8 |
| 20260507005503 | 72 | 223 | 7.0 | 10.0 | 0.00 | 0.00 | 0.00 | 44 | 1012.8 |
| 20260507005003 | 72 | 220 | 9.0 | 17.0 | 0.00 | 0.00 | 0.00 | 43 | 1012.8 |
| 20260507004503 | 72 | 221 | 9.0 | 17.0 | 0.00 | 0.00 | 0.00 | 42 | 1012.8 |